This is the latest recevied weather packets stored in our database for station/object KC8ZBC. If no packets are shown the sender has not sent any weather packets the latest 10 day(s).
| Time | Temp. | Humidity | Pressure | Rain* | Wind** | Luminosity | Snow |
|---|---|---|---|---|---|---|---|
| 1777738918 | 6.11° C | 50% | 992.6 hPa | 0 mm | - | 465 W/m² | - |
| 1777738616 | 5.56° C | 51% | 992.5 hPa | 0 mm | - | 146 W/m² | - |
| 1777738312 | 5.56° C | 48% | 992.5 hPa | 0 mm | - | 139 W/m² | - |
| 1777738010 | 5.56° C | 46% | 992.6 hPa | 0 mm | - | 213 W/m² | - |
| 1777737709 | 6.11° C | 51% | 992.8 hPa | 0 mm | - | 881 W/m² | - |
| 1777737407 | 6.67° C | 46% | 992.7 hPa | 0 mm | - | 798 W/m² | - |
| 1777737104 | 7.22° C | 49% | 992.4 hPa | 0 mm | - | 455 W/m² | - |
| 1777736800 | 6.11° C | 50% | 992.5 hPa | 0 mm | - | 800 W/m² | - |
| 1777736171 | 5.56° C | 52% | 992.7 hPa | 0 mm | - | 829 W/m² | - |
| 1777735869 | 5.56° C | 49% | 992.6 hPa | 0 mm | - | 199 W/m² | - |
| 1777735566 | 5.56° C | 48% | 992.4 hPa | 0 mm | - | 275 W/m² | - |
| 1777735263 | 5° C | 52% | 992.7 hPa | 0 mm | - | 208 W/m² | - |
| 1777734960 | 5° C | 52% | 992.6 hPa | 0 mm | - | 120 W/m² | - |
| 1777734658 | 6.11° C | 51% | 992.6 hPa | 0 mm | - | 139 W/m² | - |
| 1777734355 | 5.56° C | 54% | 992.7 hPa | 0 mm | - | 788 W/m² | - |
| 1777734050 | 5° C | 54% | 992.6 hPa | 0 mm | - | 716 W/m² | - |
| 1777733747 | 4.44° C | 57% | 992.7 hPa | 0 mm | - | 127 W/m² | - |
| 1777733444 | 4.44° C | 57% | 992.7 hPa | 0 mm | - | 103 W/m² | - |
| 1777733140 | 5° C | 56% | 992.5 hPa | 0 mm | - | 136 W/m² | - |
| 1777732837 | 5° C | 57% | 992.7 hPa | 0 mm | - | 434 W/m² | - |
| 1777732534 | 5° C | 56% | 992.5 hPa | 0 mm | - | 194 W/m² | - |
| 1777732232 | 5.56° C | 53% | 992.4 hPa | 0 mm | - | 390 W/m² | - |
| 1777731928 | 5° C | 56% | 992.7 hPa | 0 mm | - | 688 W/m² | - |
| 1777731625 | 3.89° C | 59% | 992.5 hPa | 0 mm | - | 676 W/m² | - |
| 1777731323 | 3.89° C | 58% | 992.6 hPa | 0 mm | - | 71 W/m² | - |
* Rain latest hour (hover to see other rain measurements)
** Current wind speed in m/s (hover to see current wind gust speed)